• In Belarus
  • List of Countries
  • For 7 days
  • Water Temperature
  • Satellite Maps
  • Weather Map
  • Weather Widgets
  • user-avatar
    Login

    Hourly Weather Pakuly

    Today, 15 October, Monday

    Time Temperature Precipitation Wind Pressure Humidity
    00:00 +12°C° 0 mm 3 mps 745 mmHg 66%
    01:00 +12°C° 0 mm 2 mps 745 mmHg 67%
    02:00 +12°C° 0 mm 2 mps 745 mmHg 68%
    03:00 +12°C° 0 mm 2 mps 745 mmHg 69%
    04:00 +10°C° 0 mm 2 mps 744 mmHg 70%
    05:00 +10°C° 0 mm 2 mps 745 mmHg 69%
    06:00 +10°C° 0 mm 2 mps 745 mmHg 69%
    07:00 +12°C° 0 mm 2 mps 745 mmHg 65%
    08:00 +14°C° 0 mm 2 mps 745 mmHg 58%
    09:00 +16°C° 0 mm 2 mps 745 mmHg 51%
    10:00 +18°C° 0 mm 2 mps 745 mmHg 44%
    11:00 +19°C° 0 mm 2 mps 745 mmHg 40%
    12:00 +20°C° 0 mm 2 mps 745 mmHg 36%
    13:00 +22°C° 0 mm 3 mps 745 mmHg 32%
    14:00 +21°C° 0 mm 2 mps 744 mmHg 35%
    15:00 +20°C° 0 mm 2 mps 744 mmHg 37%
    16:00 +19°C° 0 mm 2 mps 744 mmHg 39%
    17:00 +18°C° 0 mm 2 mps 744 mmHg 42%
    18:00 +16°C° 0 mm 2 mps 744 mmHg 44%
    19:00 +13°C° 0 mm 3 mps 744 mmHg 46%
    20:00 +13°C° 0 mm 3 mps 744 mmHg 49%
    21:00 +13°C° 0 mm 2 mps 744 mmHg 51%
    22:00 +12°C° 0 mm 2 mps 744 mmHg 53%
    23:00 +12°C° 0 mm 2 mps 744 mmHg 54%

    Tomorrow, 16 October, Tuesday

    Time Temperature Precipitation Wind Pressure Humidity
    00:00 +12°C° 0 mm 2 mps 744 mmHg 54%
    01:00 +10°C° 0 mm 2 mps 744 mmHg 55%
    02:00 +11°C° 0 mm 1 mps 744 mmHg 55%
    03:00 +11°C° 0 mm 1 mps 743 mmHg 55%
    04:00 +11°C° 0 mm 1 mps 743 mmHg 56%
    05:00 +11°C° 0 mm 1 mps 744 mmHg 56%
    06:00 +11°C° 0 mm 1 mps 744 mmHg 56%
    07:00 +11°C° 0 mm 1 mps 744 mmHg 56%
    08:00 +14°C° 0 mm 1 mps 744 mmHg 50%
    09:00 +16°C° 0 mm 1 mps 744 mmHg 44%
    10:00 +19°C° 0 mm 1 mps 744 mmHg 39%
    11:00 +20°C° 0 mm 1 mps 744 mmHg 36%
    12:00 +21°C° 0 mm 1 mps 744 mmHg 33%
    13:00 +23°C° 0 mm 1 mps 744 mmHg 31%
    14:00 +22°C° 0 mm 1 mps 744 mmHg 34%
    15:00 +21°C° 0 mm 1 mps 744 mmHg 37%
    16:00 +20°C° 0 mm 1 mps 744 mmHg 40%
    17:00 +18°C° 0 mm 1 mps 744 mmHg 43%
    18:00 +16°C° 0 mm 1 mps 744 mmHg 45%
    19:00 +15°C° 0 mm 2 mps 744 mmHg 48%
    20:00 +14°C° 0 mm 1 mps 744 mmHg 48%
    21:00 +14°C° 0 mm 1 mps 744 mmHg 49%
    22:00 +13°C° 0 mm 1 mps 744 mmHg 50%
    23:00 +13°C° 0 mm 1 mps 744 mmHg 51%

    Day after tomorrow, 17 October, Wednesday

    Time Temperature Precipitation Wind Pressure Humidity
    00:00 +13°C° 0 mm 1 mps 744 mmHg 51%
    01:00 +12°C° 0 mm 0 mps 744 mmHg 51%
    02:00 +12°C° 0 mm 0 mps 744 mmHg 52%
    03:00 +12°C° 0 mm 0 mps 744 mmHg 52%
    04:00 +12°C° 0 mm 1 mps 744 mmHg 53%
    05:00 +12°C° 0 mm 1 mps 744 mmHg 53%
    06:00 +12°C° 0 mm 1 mps 744 mmHg 54%
    07:00 +12°C° 0 mm 1 mps 744 mmHg 54%
    08:00 +14°C° 0 mm 1 mps 744 mmHg 50%
    09:00 +16°C° 0 mm 1 mps 744 mmHg 45%
    10:00 +19°C° 0 mm 1 mps 744 mmHg 40%
    11:00 +20°C° 0 mm 1 mps 744 mmHg 38%
    12:00 +21°C° 0 mm 1 mps 744 mmHg 36%
    13:00 +22°C° 0 mm 1 mps 744 mmHg 33%
    14:00 +21°C° 0 mm 1 mps 744 mmHg 36%
    15:00 +20°C° 0 mm 1 mps 743 mmHg 39%
    16:00 +20°C° 0 mm 1 mps 743 mmHg 42%
    17:00 +18°C° 0 mm 2 mps 743 mmHg 44%
    18:00 +16°C° 0 mm 2 mps 743 mmHg 47%
    19:00 +15°C° 0 mm 2 mps 743 mmHg 49%
    20:00 +15°C° 0 mm 2 mps 743 mmHg 50%
    21:00 +14°C° 0 mm 2 mps 743 mmHg 51%
    22:00 +14°C° 0 mm 1 mps 743 mmHg 53%
    23:00 +13°C° 0 mm 1 mps 743 mmHg 55%

    18 October, Thursday

    Time Temperature Precipitation Wind Pressure Humidity
    00:00 +13°C° 0 mm 1 mps 743 mmHg 57%
    01:00 +12°C° 0 mm 1 mps 743 mmHg 59%
    02:00 +12°C° 0 mm 1 mps 743 mmHg 61%
    03:00 +11°C° 0 mm 0 mps 743 mmHg 64%
    04:00 +10°C° 0 mm 0 mps 742 mmHg 66%
    05:00 +10°C° 0 mm 0 mps 742 mmHg 66%
    06:00 +10°C° 0 mm 0 mps 742 mmHg 67%
    07:00 +10°C° 0 mm 0 mps 742 mmHg 68%
    08:00 +13°C° 0 mm 1 mps 743 mmHg 62%
    09:00 +15°C° 0 mm 1 mps 743 mmHg 56%
    10:00 +18°C° 0 mm 1 mps 743 mmHg 51%
    11:00 +19°C° 0 mm 1 mps 742 mmHg 49%
    12:00 +19°C° 0 mm 1 mps 742 mmHg 47%
    13:00 +19°C° 0 mm 2 mps 742 mmHg 45%
    14:00 +19°C° 0 mm 1 mps 742 mmHg 49%
    15:00 +19°C° 0 mm 1 mps 742 mmHg 52%
    16:00 +18°C° 0 mm 1 mps 742 mmHg 56%
    17:00 +16°C° 0 mm 1 mps 742 mmHg 59%
    18:00 +15°C° 0 mm 1 mps 742 mmHg 62%
    19:00 +14°C° 0 mm 1 mps 742 mmHg 65%
    20:00 +14°C° 0 mm 1 mps 742 mmHg 67%
    21:00 +14°C° 0 mm 1 mps 742 mmHg 68%
    22:00 +14°C° 0 mm 1 mps 742 mmHg 69%
    23:00 +13°C° 0 mm 1 mps 742 mmHg 70%

    19 October, Friday

    Time Temperature Precipitation Wind Pressure Humidity
    00:00 +13°C° 0 mm 1 mps 742 mmHg 72%
    01:00 +13°C° 0 mm 1 mps 742 mmHg 74%
    02:00 +12°C° 0 mm 1 mps 742 mmHg 76%
    03:00 +12°C° 0 mm 1 mps 742 mmHg 77%
    04:00 +12°C° 0 mm 1 mps 742 mmHg 79%
    05:00 +12°C° 0 mm 1 mps 742 mmHg 80%
    06:00 +12°C° 0 mm 1 mps 742 mmHg 80%
    07:00 +12°C° 0 mm 1 mps 742 mmHg 80%
    08:00 +14°C° 0 mm 1 mps 742 mmHg 74%
    09:00 +15°C° 0 mm 1 mps 743 mmHg 68%
    10:00 +18°C° 0 mm 1 mps 743 mmHg 61%
    11:00 +17°C° 0 mm 2 mps 742 mmHg 59%
    12:00 +18°C° 0 mm 2 mps 742 mmHg 56%
    13:00 +19°C° 0 mm 2 mps 742 mmHg 53%
    14:00 +18°C° 0 mm 2 mps 742 mmHg 56%
    15:00 +18°C° 0 mm 2 mps 742 mmHg 59%
    16:00 +17°C° 0 mm 2 mps 742 mmHg 62%
    17:00 +16°C° 0 mm 2 mps 742 mmHg 66%
    18:00 +15°C° 0 mm 2 mps 742 mmHg 70%
    19:00 +14°C° 0 mm 2 mps 742 mmHg 74%
    20:00 +13°C° 0 mm 2 mps 743 mmHg 76%
    21:00 +13°C° 0 mm 2 mps 743 mmHg 78%
    22:00 +12°C° 0 mm 2 mps 743 mmHg 80%
    23:00 +12°C° 0 mm 2 mps 743 mmHg 82%

    20 October, Saturday

    Time Temperature Precipitation Wind Pressure Humidity
    00:00 +12°C° 0 mm 2 mps 743 mmHg 85%
    01:00 +10°C° 0 mm 2 mps 743 mmHg 87%
    02:00 +12°C° 0 mm 2 mps 743 mmHg 87%
    03:00 +11°C° 0 mm 3 mps 743 mmHg 87%
    04:00 +11°C° 0 mm 3 mps 743 mmHg 87%
    05:00 +11°C° 0.1 mm 3 mps 744 mmHg 85%
    06:00 +10°C° 0.1 mm 3 mps 744 mmHg 82%
    07:00 +10°C° 0.1 mm 4 mps 744 mmHg 79%
    08:00 +11°C° 0 mm 4 mps 744 mmHg 73%
    09:00 +11°C° 0 mm 4 mps 745 mmHg 68%
    10:00 +11°C° 0 mm 4 mps 745 mmHg 62%
    11:00 +12°C° 0 mm 4 mps 745 mmHg 59%
    12:00 +12°C° 0 mm 5 mps 745 mmHg 56%
    13:00 +13°C° 0 mm 5 mps 745 mmHg 53%
    14:00 +12°C° 0 mm 5 mps 745 mmHg 56%
    15:00 +11°C° 0 mm 4 mps 745 mmHg 60%
    16:00 +11°C° 0 mm 4 mps 745 mmHg 63%
    17:00 +10°C° 0 mm 4 mps 745 mmHg 65%
    18:00 +8°C° 0 mm 4 mps 746 mmHg 67%
    19:00 +8°C° 0 mm 4 mps 746 mmHg 70%
    20:00 +9°C° 0 mm 3 mps 746 mmHg 68%
    21:00 +9°C° 0 mm 3 mps 746 mmHg 67%
    22:00 +9°C° 0 mm 3 mps 747 mmHg 65%
    23:00 +8°C° 0 mm 3 mps 747 mmHg 67%
    Show more